TimeEDT,TemperatureF,Dew PointF,Humidity,Sea Level PressureIn,VisibilityMPH,Wind Direction,Wind SpeedMPH,Gust SpeedMPH,PrecipitationIn,Events,Conditions,WindDirDegrees,DateUTC
12:15 AM,68.0,63.9,87,29.88,7.0,SE,5.8,-,N/A,Rain,Light Rain,130,2013-06-10 04:15:00
12:35 AM,68.0,64.0,87,29.88,5.0,SE,6.9,-,0.01,Rain,Light Rain,140,2013-06-10 04:35:00
12:55 AM,68.0,64.4,88,29.87,4.0,SE,5.8,-,0.05,Rain,Light Rain,130,2013-06-10 04:55:00
1:15 AM,68.0,63.9,87,29.86,5.0,SSE,8.1,-,0.02,Rain,Light Rain,150,2013-06-10 05:15:00
1:35 AM,67.5,63.1,86,29.85,5.0,SSE,8.1,-,0.04,Rain,Light Rain,160,2013-06-10 05:35:00
1:55 AM,66.7,62.6,86,29.85,7.0,WSW,8.1,-,0.06,Rain,Light Rain,250,2013-06-10 05:55:00
2:15 AM,64.9,61.9,90,29.85,5.0,West,3.5,-,0.07,Rain,Light Rain,260,2013-06-10 06:15:00
2:35 AM,64.4,62.1,92,29.84,5.0,Calm,Calm,-,0.11,Rain,Light Rain,0,2013-06-10 06:35:00
2:55 AM,64.6,62.4,93,29.83,7.0,North,3.5,-,0.14,,Overcast,360,2013-06-10 06:55:00
3:15 AM,64.4,62.6,94,29.82,5.0,East,4.6,-,0.02,Rain,Light Rain,100,2013-06-10 07:15:00
3:35 AM,64.4,62.2,93,29.82,7.0,SE,3.5,-,0.05,Rain,Light Rain,130,2013-06-10 07:35:00
3:55 AM,64.8,62.6,93,29.81,7.0,SE,3.5,-,0.06,Rain,Light Rain,140,2013-06-10 07:55:00
4:15 AM,65.1,62.8,92,29.80,7.0,SSE,4.6,-,0.01,Rain,Light Rain,150,2013-06-10 08:15:00
4:35 AM,65.3,63.1,93,29.79,4.0,SSE,5.8,-,0.06,Rain,Rain,160,2013-06-10 08:35:00
4:55 AM,65.5,63.5,93,29.79,2.0,South,8.1,-,0.20,Rain,Rain,180,2013-06-10 08:55:00
5:15 AM,65.7,63.5,93,29.79,7.0,South,9.2,-,0.03,Rain,Light Rain,190,2013-06-10 09:15:00
5:35 AM,65.1,62.6,92,29.79,5.0,South,5.8,-,0.04,,Overcast,190,2013-06-10 09:35:00
5:55 AM,64.6,62.1,92,29.79,10.0,South,6.9,-,0.04,,Overcast,190,2013-06-10 09:55:00
6:15 AM,64.4,62.1,92,29.80,7.0,South,5.8,-,N/A,,Overcast,190,2013-06-10 10:15:00
6:35 AM,64.2,62.1,93,29.80,7.0,SSW,4.6,-,N/A,,Overcast,200,2013-06-10 10:35:00
6:55 AM,63.9,61.7,93,29.81,5.0,South,8.1,-,N/A,,Overcast,180,2013-06-10 10:55:00
7:15 AM,63.9,61.9,93,29.81,5.0,South,6.9,-,N/A,,Overcast,180,2013-06-10 11:15:00
7:35 AM,64.0,61.9,93,29.81,7.0,South,5.8,-,N/A,,Overcast,190,2013-06-10 11:35:00
7:55 AM,64.4,62.2,93,29.81,7.0,SSW,6.9,-,N/A,,Overcast,210,2013-06-10 11:55:00
8:15 AM,64.8,62.6,93,29.82,7.0,West,8.1,-,N/A,,Overcast,260,2013-06-10 12:15:00
8:35 AM,65.3,63.1,93,29.82,5.0,SW,8.1,-,N/A,,Overcast,220,2013-06-10 12:35:00
8:55 AM,65.7,63.5,93,29.82,7.0,SW,10.4,-,N/A,,Overcast,230,2013-06-10 12:55:00
9:15 AM,66.2,63.3,90,29.82,7.0,WSW,12.7,17.3,N/A,,Overcast,240,2013-06-10 13:15:00
9:35 AM,66.4,62.6,88,29.82,7.0,WSW,11.5,-,N/A,,Overcast,250,2013-06-10 13:35:00
9:55 AM,67.6,62.6,84,29.82,10.0,WSW,10.4,-,N/A,,Mostly Cloudy,240,2013-06-10 13:55:00
10:15 AM,68.5,62.2,80,29.82,7.0,WSW,12.7,17.3,N/A,,Mostly Cloudy,240,2013-06-10 14:15:00
10:35 AM,69.4,61.3,75,29.81,10.0,SW,13.8,18.4,N/A,,Mostly Cloudy,230,2013-06-10 14:35:00
10:55 AM,70.2,61.0,73,29.81,7.0,WSW,13.8,-,N/A,,Scattered Clouds,240,2013-06-10 14:55:00
11:15 AM,70.5,60.4,70,29.81,7.0,WSW,11.5,-,N/A,,Scattered Clouds,250,2013-06-10 15:15:00
11:35 AM,71.2,60.8,69,29.82,10.0,WSW,11.5,-,N/A,,Scattered Clouds,250,2013-06-10 15:35:00
11:55 AM,71.6,60.6,68,29.82,10.0,WSW,11.5,19.6,N/A,,Mostly Cloudy,250,2013-06-10 15:55:00
12:15 PM,72.3,61.3,68,29.82,10.0,WSW,12.7,18.4,N/A,,Mostly Cloudy,240,2013-06-10 16:15:00
12:35 PM,72.7,61.2,67,29.82,7.0,WSW,15.0,19.6,N/A,,Mostly Cloudy,240,2013-06-10 16:35:00
12:55 PM,72.7,61.0,67,29.81,7.0,WSW,13.8,-,N/A,,Mostly Cloudy,250,2013-06-10 16:55:00
1:15 PM,73.8,60.6,63,29.81,10.0,WSW,17.3,23.0,N/A,,Mostly Cloudy,250,2013-06-10 17:15:00
1:35 PM,73.8,60.3,63,29.81,10.0,West,16.1,21.9,N/A,,Mostly Cloudy,260,2013-06-10 17:35:00
1:55 PM,74.3,61.2,63,29.80,10.0,WSW,17.3,20.7,N/A,,Scattered Clouds,250,2013-06-10 17:55:00
2:15 PM,74.3,60.3,61,29.80,10.0,West,17.3,-,N/A,,Scattered Clouds,260,2013-06-10 18:15:00
2:35 PM,74.1,60.4,62,29.80,10.0,WSW,16.1,21.9,N/A,,Scattered Clouds,250,2013-06-10 18:35:00
2:55 PM,74.5,60.6,62,29.80,7.0,West,15.0,-,N/A,,Mostly Cloudy,260,2013-06-10 18:55:00
3:15 PM,74.1,60.6,63,29.80,7.0,WSW,11.5,-,N/A,,Mostly Cloudy,240,2013-06-10 19:15:00
3:35 PM,74.3,60.4,62,29.80,10.0,WSW,12.7,-,N/A,,Mostly Cloudy,240,2013-06-10 19:35:00
3:55 PM,73.8,60.8,64,29.80,10.0,West,15.0,20.7,N/A,,Mostly Cloudy,270,2013-06-10 19:55:00
4:15 PM,72.1,61.2,68,29.80,7.0,WSW,8.1,-,N/A,,Overcast,250,2013-06-10 20:15:00
4:35 PM,74.8,61.2,62,29.80,10.0,West,12.7,-,N/A,,Scattered Clouds,270,2013-06-10 20:35:00
4:55 PM,74.8,60.6,61,29.79,10.0,West,15.0,20.7,N/A,,Scattered Clouds,270,2013-06-10 20:55:00
5:15 PM,75.0,59.5,58,29.79,7.0,West,13.8,-,N/A,,Scattered Clouds,270,2013-06-10 21:15:00
5:35 PM,74.7,59.5,59,29.79,10.0,West,10.4,17.3,N/A,,Mostly Cloudy,260,2013-06-10 21:35:00
5:55 PM,74.1,60.4,62,29.79,7.0,WSW,11.5,-,N/A,,Scattered Clouds,250,2013-06-10 21:55:00
6:15 PM,74.5,60.8,62,29.79,10.0,West,11.5,-,N/A,,Scattered Clouds,260,2013-06-10 22:15:00
6:35 PM,74.5,61.0,63,29.79,10.0,WSW,10.4,-,N/A,,Mostly Cloudy,250,2013-06-10 22:35:00
6:55 PM,74.3,61.2,63,29.80,7.0,West,12.7,-,N/A,,Mostly Cloudy,260,2013-06-10 22:55:00
7:15 PM,75.0,61.2,62,29.80,7.0,West,13.8,-,N/A,,Mostly Cloudy,280,2013-06-10 23:15:00
7:35 PM,74.1,60.1,61,29.80,7.0,West,10.4,-,N/A,,Overcast,270,2013-06-10 23:35:00
7:55 PM,72.3,60.8,67,29.82,5.0,NW,9.2,20.7,N/A,Rain,Light Rain,320,2013-06-10 23:55:00
8:15 PM,68.9,61.7,78,29.82,4.0,WNW,8.1,-,N/A,,Haze,300,2013-06-11 00:15:00
8:35 PM,68.9,61.7,78,29.81,10.0,WNW,5.8,-,N/A,,Overcast,290,2013-06-11 00:35:00
8:55 PM,69.1,62.2,79,29.81,4.0,West,5.8,-,N/A,,Haze,280,2013-06-11 00:55:00
9:15 PM,68.5,62.4,81,29.82,4.0,WSW,4.6,-,N/A,,Haze,250,2013-06-11 01:15:00
9:35 PM,67.8,62.4,83,29.82,5.0,WSW,6.9,-,N/A,,Haze,240,2013-06-11 01:35:00
9:55 PM,67.3,62.1,83,29.83,7.0,WSW,8.1,-,N/A,,Clear,250,2013-06-11 01:55:00
10:15 PM,66.9,61.9,84,29.84,7.0,WSW,8.1,-,N/A,,Clear,250,2013-06-11 02:15:00
10:35 PM,66.6,61.7,84,29.85,7.0,WSW,8.1,-,N/A,,Clear,240,2013-06-11 02:35:00
10:55 PM,66.4,61.7,85,29.86,10.0,SW,8.1,-,N/A,,Clear,230,2013-06-11 02:55:00
11:15 PM,66.2,61.9,86,29.86,10.0,SW,6.9,-,N/A,,Clear,230,2013-06-11 03:15:00
11:35 PM,66.2,61.9,86,29.87,7.0,WSW,5.8,-,N/A,,Clear,250,2013-06-11 03:35:00
11:55 PM,65.8,61.9,87,29.87,7.0,West,4.6,-,N/A,,Clear,260,2013-06-11 03:55:00